[[{"header":{"parameterUnit":"m.s-1","parameterCategory":2,"la1":30.2991,"la2":30.254,"lo1":-89.0895,"lo2":-89.0444,"dy":0.0017,"dx":0.0017,"nx":28,"ny":28,"refTime":"2025-03-19T09:00:00:Z","depth":"0","parameterNumber":2,"parameterNumberName":"U-component_of_CURRENTS"},"data":[0,0,0,0,0,0,0,0,0,0,0,0,0,0,0,0,0,0,0,0,0,0,0,0,0,0,0,0,0,0,0,0,0,0,0,0,0,0,0,0,0,0,0,0,0,0,0,0,0,0,0,0,0,0,0,0,0,0,0.2089,0.209,0,0.2137,0.2137,0.2138,0.2177,0.2178,0.2178,0.2179,0.2173,0.2172,0.2172,0,0,0,0,0,0,0,0,0,0,0,0,0,0.1987,0.1989,0.2089,0.209,0.2091,0.2137,0.2137,0.2138,0.2177,0.2178,0.2178,0.2179,0.2173,0.2172,0.2172,0,0,0,0,0,0,0,0,0,0,0,0,0,0.2031,0.199,0.2089,0.2117,0.212,0.2137,0.2137,0.2138,0.2177,0.2178,0.2178,0.2179,0.2173,0.2172,0.2171,0.2148,0,0,0.2168,0.2168,0,0,0,0,0,0,0,0,0.2029,0.2035,0.2112,0.2115,0.2119,0.2153,0.2099,0.2139,0.2177,0.2154,0.2179,0.218,0.2162,0.2162,0.2167,0.2148,0.2147,0.2168,0.2168,0.2167,0.2167,0,0,0,0,0,0,0,0.2026,0.2033,0.2107,0.2113,0.2117,0.2112,0.2119,0.2107,0.215,0.2156,0.2159,0.2167,0.2163,0.2168,0.2167,0.2147,0.2168,0.2167,0.2167,0.2166,0.2123,0.2123,0,0,0,0,0,0,0.2025,0.203,0.2105,0.2108,0.2077,0.2113,0.2121,0.214,0.2151,0.2155,0.2166,0.2168,0.217,0.2168,0.2167,0.2155,0.2167,0.2166,0.2166,0.2124,0.2123,0.2122,0,0,0,0,0,0,0.2023,0.2032,0.2103,0.2071,0.208,0.2115,0.2135,0.2141,0.2154,0.216,0.2162,0.2174,0.217,0.2169,0.2165,0.2155,0.2166,0.2165,0.2124,0.2123,0.2123,0.2121,0,0,0,0,0,0,0.202,0.2031,0.2043,0.2071,0.2082,0.2116,0.2134,0.2141,0.2157,0.2161,0.2168,0.2168,0.2171,0.2167,0.2164,0.2153,0.2164,0.2125,0.2124,0.2123,0.2122,0.212,0.2119,0,0,0,0,0,0.2016,0.2027,0.2043,0.2052,0.2098,0.2116,0.2121,0.2147,0.2157,0.2161,0.2169,0.2168,0.2158,0.2166,0.2163,0.2151,0.2125,0.2124,0.2123,0.2122,0.212,0.2119,0,0,0,0,0,0,0.1983,0.2033,0.2051,0.2076,0.2098,0.2124,0.213,0.2146,0.2156,0.2158,0.2164,0.2164,0.2161,0.2152,0.216,0.2135,0.214,0.2138,0.214,0.2138,0.2137,0.2148,0.2163,0,0,0,0,0,0.1983,0.2006,0.2046,0.2061,0.2075,0.2102,0.2113,0.213,0.2143,0.215,0.2154,0.2152,0.2151,0.2143,0.2143,0.2122,0.2151,0.2112,0.211,0.2109,0.2115,0.2164,0.2169,0.2118,0.2118,0.2118,0,0,0.197,0.2001,0.2013,0.2055,0.2074,0.2088,0.211,0.2126,0.2131,0.2144,0.2146,0.2153,0.2147,0.2138,0.2132,0.2128,0.2137,0.2108,0.2107,0.2114,0.2164,0.2169,0.2174,0.2118,0.2118,0.2118,0,0,0.1949,0.1988,0.1999,0.2022,0.2056,0.2074,0.2079,0.2109,0.2118,0.2123,0.2134,0.2138,0.2128,0.2127,0.2123,0.2108,0.2137,0.21,0.2092,0.2139,0.2144,0.2149,0.2191,0.2199,0.2089,0.2089,0.2089,0,0.1929,0.1964,0.2,0.2017,0.2039,0.2067,0.2081,0.2087,0.2108,0.2125,0.2122,0.2141,0.2124,0.2127,0.2113,0.2105,0.2142,0.21,0.214,0.2146,0.2151,0.2192,0.2202,0.2089,0.2089,0.2089,0.2089,0,0.1923,0.1952,0.1958,0.1997,0.2017,0.2034,0.2059,0.2074,0.209,0.2108,0.213,0.2122,0.2143,0.212,0.2105,0.2124,0.2142,0.2145,0.215,0.2157,0.2198,0.2209,0.2088,0.2089,0.2089,0.2089,0,0,0.1891,0.1944,0.1948,0.1981,0.2018,0.2041,0.2047,0.2082,0.2117,0.2116,0.2166,0.2127,0.2152,0.2148,0.2137,0.2145,0.219,0.215,0.2153,0.2202,0.2305,0.2305,0.2316,0.2213,0.2215,0.2216,0.2319,0,0.1881,0.1915,0.194,0.1975,0.201,0.2044,0.2059,0.2092,0.2123,0.2174,0.217,0.2208,0.2153,0.2179,0.2177,0.2204,0.2218,0.2162,0.2283,0.2286,0.2294,0.2328,0.231,0.24,0.233,0.2331,0.2333,0,0.1889,0.1916,0.1946,0.2015,0.2032,0.2047,0.2124,0.214,0.2199,0.2231,0.2266,0.2289,0.23,0.2264,0.2304,0.228,0.2288,0.2293,0.2298,0.2308,0.2305,0.2382,0.2421,0.2422,0.2349,0.2347,0.2346,0,0.1899,0.1938,0.1968,0.1988,0.2048,0.2072,0.2102,0.2162,0.221,0.2283,0.2346,0.2369,0.241,0.2419,0.2409,0.2379,0.2469,0.2441,0.2448,0.2448,0.246,0.2458,0.2524,0.2481,0.248,0.248,0.248,0,0.1916,0.195,0.1977,0.2004,0.2053,0.2091,0.2156,0.2198,0.2282,0.234,0.2381,0.2439,0.2454,0.25,0.2471,0.2499,0.2529,0.2463,0.2482,0.2456,0.2453,0.2474,0.2458,0.2484,0.2483,0.2482,0.2482,0,0.1942,0.1958,0.2002,0.2047,0.2066,0.2103,0.2187,0.2234,0.2319,0.2404,0.2437,0.2529,0.2579,0.2593,0.2626,0.2596,0.2569,0.261,0.2572,0.2583,0.2571,0.2555,0.2504,0.2415,0.2648,0.2649,0.2649,0,0.196,0.1983,0.2024,0.2038,0.2057,0.2113,0.2148,0.224,0.2291,0.2435,0.2473,0.2581,0.2624,0.2706,0.2695,0.2706,0.2602,0.268,0.2602,0.2585,0.2582,0.2442,0.2358,0.2619,0.262,0.262,0.262,0,0.198,0.1987,0.2006,0.2034,0.2064,0.2104,0.216,0.2217,0.2309,0.2398,0.2486,0.255,0.2663,0.2684,0.2733,0.272,0.2602,0.2685,0.269,0.2586,0.2418,0.2337,0.2531,0.2622,0.2622,0.2622,0.2622,0.2622,0.197,0.1975,0.198,0.2005,0.2036,0.2054,0.2064,0.2133,0.221,0.2303,0.2415,0.2499,0.2654,0.2733,0.2703,0.2722,0.2614,0.2675,0.2666,0.2531,0.241,0.2601,0.2693,0.2693,0.2694,0.2694,0.2694,0,0.1919,0.1923,0.1946,0.1949,0.1947,0.1989,0.2032,0.2026,0.2058,0.2211,0.2287,0.2484,0.2586,0.2682,0.2797,0.2745,0.2564,0.2684,0.2507,0.2427,0.2656,0.2623,0.2677,0.2677,0.2677,0.2677,0.2677,0.2677,0.1885,0.1866,0.1872,0.1838,0.1846,0.1807,0.1805,0.1823,0.1911,0.2032,0.2164,0.2304,0.2639,0.2899,0.2928,0.2832,0.2601,0.2511,0.2429,0.2661,0.2659,0.2657,0.2624,0.2677,0.2677,0.2111,0.2107,0.2104]},{"header":{"parameterUnit":"m.s-1","parameterCategory":2,"la1":30.2991,"la2":30.254,"lo1":-89.0895,"lo2":-89.0444,"dy":0.0017,"dx":0.0017,"nx":28,"ny":28,"refTime":"2025-03-19T09:00:00:Z","depth":"0","parameterNumber":3,"parameterNumberName":"V-component_of_CURRENTS"},"data":[0,0,0,0,0,0,0,0,0,0,0,0,0,0,0,0,0,0,0,0,0,0,0,0,0,0,0,0,0,0,0,0,0,0,0,0,0,0,0,0,0,0,0,0,0,0,0,0,0,0,0,0,0,0,0,0,0,0,-0.0084,-0.0084,0,-0.0153,-0.0154,-0.0155,-0.0217,-0.0217,-0.0218,-0.0218,-0.0305,-0.0307,-0.0308,0,0,0,0,0,0,0,0,0,0,0,0,0,-0.0066,-0.0066,-0.0084,-0.0085,-0.0085,-0.0152,-0.0154,-0.0155,-0.0217,-0.0217,-0.0218,-0.0218,-0.0304,-0.0306,-0.0309,0,0,0,0,0,0,0,0,0,0,0,0,0,-0.0101,-0.0066,-0.0084,-0.0122,-0.0125,-0.0152,-0.0154,-0.0155,-0.0217,-0.0217,-0.0218,-0.0218,-0.0303,-0.0306,-0.0309,-0.0313,0,0,-0.0318,-0.0319,0,0,0,0,0,0,0,0,-0.0099,-0.0102,-0.0116,-0.0119,-0.0123,-0.0174,-0.0179,-0.0208,-0.0216,-0.0185,-0.0218,-0.0219,-0.026,-0.0266,-0.0282,-0.0317,-0.0321,-0.0318,-0.032,-0.0321,-0.0322,0,0,0,0,0,0,0,-0.0096,-0.01,-0.0114,-0.0116,-0.0121,-0.0155,-0.0161,-0.0185,-0.0221,-0.0188,-0.0192,-0.0194,-0.0263,-0.0279,-0.0285,-0.0322,-0.0318,-0.032,-0.0322,-0.0323,-0.0356,-0.0355,0,0,0,0,0,0,-0.0077,-0.0097,-0.0112,-0.0116,-0.0109,-0.0155,-0.0161,-0.016,-0.022,-0.0229,-0.0194,-0.0197,-0.0274,-0.0281,-0.0288,-0.0286,-0.0321,-0.0323,-0.0325,-0.0357,-0.0356,-0.0355,0,0,0,0,0,0,-0.0077,-0.0078,-0.0109,-0.0106,-0.0112,-0.0153,-0.0152,-0.0161,-0.0175,-0.0224,-0.0234,-0.0199,-0.0275,-0.0284,-0.0305,-0.029,-0.0325,-0.0327,-0.0358,-0.0357,-0.0356,-0.0289,0,0,0,0,0,0,-0.0076,-0.0077,-0.0074,-0.0104,-0.0111,-0.0115,-0.0151,-0.0161,-0.0174,-0.0179,-0.0231,-0.024,-0.0276,-0.03,-0.0307,-0.0295,-0.0329,-0.0359,-0.0357,-0.0356,-0.0292,-0.0286,-0.028,0,0,0,0,0,-0.0075,-0.0063,-0.0073,-0.0075,-0.0104,-0.0113,-0.012,-0.0155,-0.0173,-0.0173,-0.021,-0.0239,-0.0295,-0.0302,-0.0311,-0.0299,-0.036,-0.0358,-0.0356,-0.0295,-0.0287,-0.028,0,0,0,0,0,0,-0.0051,-0.0068,-0.0081,-0.0074,-0.0087,-0.0122,-0.0127,-0.0147,-0.0176,-0.0184,-0.0232,-0.0243,-0.0257,-0.0283,-0.0289,-0.0302,-0.0331,-0.033,-0.0281,-0.0274,-0.0268,-0.0263,-0.0332,0,0,0,0,0,-0.0042,-0.0039,-0.0059,-0.0052,-0.0058,-0.0091,-0.0101,-0.012,-0.0147,-0.0161,-0.0194,-0.0228,-0.0255,-0.0268,-0.0297,-0.0303,-0.0338,-0.03,-0.0293,-0.0288,-0.0289,-0.0328,-0.0326,-0.0349,-0.0349,-0.0349,0,0,-0.0032,-0.0039,-0.0038,-0.0047,-0.0065,-0.0063,-0.0099,-0.0105,-0.0105,-0.0165,-0.0175,-0.0209,-0.0253,-0.0264,-0.0271,-0.0284,-0.0297,-0.0286,-0.0281,-0.0285,-0.0326,-0.0324,-0.0322,-0.0348,-0.0348,-0.0348,0,0,-0.0001,-0.0014,-0.0001,-0.0007,-0.002,-0.004,-0.0035,-0.0062,-0.0077,-0.0086,-0.0131,-0.0156,-0.019,-0.0222,-0.0242,-0.0217,-0.0265,-0.022,-0.0185,-0.0223,-0.0222,-0.0221,-0.0251,-0.0254,-0.0215,-0.0215,-0.0215,0,0.0012,0.0026,0.0003,0.0015,0.0013,-0.0022,-0.0008,-0.0025,-0.0053,-0.0064,-0.0078,-0.0137,-0.0171,-0.0196,-0.0188,-0.0204,-0.0232,-0.021,-0.0215,-0.0216,-0.0216,-0.0248,-0.0252,-0.0212,-0.0212,-0.0212,-0.0213,0,0.0052,0.0061,0.007,0.0072,0.0068,0.0075,0.0053,0.0045,0.0024,0.0003,-0.0021,-0.0069,-0.0107,-0.0115,-0.0146,-0.0162,-0.0183,-0.0205,-0.0235,-0.021,-0.0245,-0.025,-0.0207,-0.0208,-0.0209,-0.021,0,0,0.0081,0.0096,0.0098,0.011,0.0098,0.0102,0.0101,0.0089,0.0088,0.0058,0.0051,0.0004,-0.0029,-0.0054,-0.0095,-0.0124,-0.0148,-0.016,-0.0164,-0.0191,-0.0228,-0.0239,-0.0246,-0.0173,-0.0174,-0.0175,-0.0247,0,0.0116,0.016,0.0152,0.0184,0.0198,0.0168,0.0173,0.0155,0.0133,0.0118,0.0063,0.0042,-0.0003,-0.0018,-0.0056,-0.0127,-0.016,-0.0126,-0.0248,-0.0252,-0.0265,-0.0252,-0.0257,-0.0323,-0.0253,-0.0254,-0.0255,0,0.0148,0.0176,0.0219,0.0238,0.0241,0.0252,0.0244,0.0245,0.0208,0.0189,0.0149,0.0107,0.0056,0.0018,-0.0094,-0.007,-0.0143,-0.0198,-0.0203,-0.0242,-0.0272,-0.0339,-0.0335,-0.0506,-0.0263,-0.0262,-0.0262,0,0.0174,0.0214,0.0253,0.0261,0.0279,0.0286,0.0287,0.0263,0.0277,0.0231,0.0237,0.0155,0.0129,0.0024,-0.0087,-0.0093,-0.0209,-0.0235,-0.0315,-0.0317,-0.0361,-0.0365,-0.054,-0.0317,-0.0317,-0.0317,-0.0316,0,0.0204,0.0233,0.0271,0.0293,0.0339,0.0325,0.0359,0.0341,0.0336,0.0364,0.0277,0.0284,0.013,0.0051,-0.0069,-0.0203,-0.02,-0.031,-0.0337,-0.0336,-0.0336,-0.0519,-0.0622,-0.0319,-0.0319,-0.0318,-0.0318,0,0.0221,0.0243,0.0297,0.0338,0.0354,0.0383,0.0426,0.0453,0.0429,0.0462,0.0457,0.0383,0.0273,0.0117,-0.0052,-0.0164,-0.0405,-0.0351,-0.0334,-0.0358,-0.0588,-0.0686,-0.0895,-0.097,-0.0454,-0.0454,-0.0455,0,0.0235,0.0266,0.0342,0.0384,0.0406,0.0453,0.0491,0.0495,0.054,0.0535,0.0567,0.047,0.0426,0.0169,-0.0062,-0.0282,-0.0441,-0.043,-0.0446,-0.0605,-0.0735,-0.0801,-0.0853,-0.0478,-0.0479,-0.0479,-0.048,0,0.0271,0.0299,0.035,0.0443,0.05,0.0572,0.0631,0.0687,0.0701,0.0731,0.0755,0.0715,0.0461,0.0239,-0.0073,-0.024,-0.0565,-0.0448,-0.0628,-0.0782,-0.0853,-0.0935,-0.0424,-0.0485,-0.0485,-0.0484,-0.0484,-0.0484,0.0303,0.035,0.0426,0.0512,0.0585,0.0685,0.0761,0.0832,0.0916,0.0981,0.0916,0.0889,0.0534,0.0107,-0.015,-0.062,-0.0619,-0.0751,-0.0859,-0.0911,-0.0985,-0.0476,-0.0557,-0.0557,-0.0557,-0.0557,-0.0557,0,0.0356,0.0409,0.0492,0.0603,0.0699,0.0727,0.0858,0.0943,0.1061,0.1106,0.1123,0.0915,0.0484,0.0031,-0.0592,-0.0943,-0.1078,-0.1156,-0.127,-0.1304,-0.0867,-0.0868,-0.1001,-0.1001,-0.1001,-0.1001,-0.1001,-0.1001,0.0384,0.0476,0.0521,0.0685,0.0767,0.0913,0.1001,0.1116,0.1193,0.1248,0.122,0.1154,0.0781,-0.0359,-0.1156,-0.1358,-0.1624,-0.1696,-0.1814,-0.154,-0.1511,-0.1483,-0.1508,-0.1773,-0.1774,-0.2192,-0.2196,-0.22]}],[{"header":{"parameterUnit":"m.s-1","parameterCategory":2,"la1":30.2991,"la2":30.254,"lo1":-89.0895,"lo2":-89.0444,"dy":0.0017,"dx":0.0017,"nx":28,"ny":28,"refTime":"2025-03-19T09:00:00:Z","depth":"2","parameterNumber":2,"parameterNumberName":"U-component_of_CURRENTS"},"data":[0,0,0,0,0,0,0,0,0,0,0,0,0,0,0,0,0,0,0,0,0,0,0,0,0,0,0,0,0,0,0,0,0,0,0,0,0,0,0,0,0,0,0,0,0,0,0,0,0,0,0,0,0,0,0,0,0,0,0.1988,0.1989,0,0.2028,0.2029,0.2029,0.207,0.2071,0.2072,0.2072,0.2079,0.2078,0.2077,0,0,0,0,0,0,0,0,0,0,0,0,0,0.1895,0.1897,0.1988,0.1989,0.199,0.2028,0.2029,0.2029,0.207,0.2071,0.2072,0.2073,0.2079,0.2078,0.2077,0,0,0,0,0,0,0,0,0,0,0,0,0,0.1933,0.1897,0.1988,0.2017,0.202,0.2028,0.2029,0.2029,0.207,0.2071,0.2072,0.2073,0.2079,0.2078,0.2077,0.2049,0,0,0.2075,0.2074,0,0,0,0,0,0,0,0,0.1931,0.1936,0.2012,0.2015,0.2018,0.2048,0.1998,0.2035,0.2069,0.2048,0.2072,0.2074,0.2066,0.2066,0.2068,0.2049,0.2049,0.2075,0.2074,0.2074,0.2074,0,0,0,0,0,0,0,0.1928,0.1934,0.2002,0.2012,0.2016,0.201,0.2016,0.2005,0.2047,0.205,0.2054,0.2062,0.2067,0.2069,0.2068,0.205,0.2075,0.2074,0.2073,0.2073,0.2036,0.2035,0,0,0,0,0,0,0.193,0.1932,0.2001,0.2003,0.1979,0.2011,0.2018,0.2035,0.2048,0.2053,0.2061,0.2063,0.207,0.2069,0.2069,0.2064,0.2074,0.2073,0.2073,0.2036,0.2036,0.2035,0,0,0,0,0,0,0.1928,0.1936,0.1999,0.197,0.1978,0.2012,0.203,0.2035,0.2051,0.2057,0.2061,0.2073,0.2071,0.207,0.2071,0.2064,0.2073,0.2072,0.2037,0.2036,0.2035,0.2036,0,0,0,0,0,0,0.1925,0.1935,0.1948,0.197,0.198,0.2012,0.2029,0.2035,0.2054,0.2059,0.2068,0.2069,0.2071,0.2073,0.2071,0.2063,0.2071,0.2038,0.2037,0.2036,0.2037,0.2035,0.2034,0,0,0,0,0,0.1922,0.1933,0.1948,0.1956,0.1996,0.2013,0.2016,0.2042,0.2054,0.206,0.2068,0.207,0.2065,0.2072,0.2069,0.2061,0.2038,0.2037,0.2036,0.2037,0.2036,0.2034,0,0,0,0,0,0,0.1894,0.194,0.1956,0.1981,0.2,0.2021,0.2028,0.2044,0.2055,0.2059,0.2066,0.2067,0.2069,0.206,0.2067,0.2046,0.205,0.2048,0.2052,0.205,0.2049,0.206,0.2071,0,0,0,0,0,0.1895,0.1918,0.1953,0.1968,0.1981,0.2005,0.2015,0.2032,0.2045,0.2053,0.2059,0.2059,0.2058,0.2052,0.2053,0.2035,0.2062,0.2027,0.2025,0.2025,0.2031,0.2078,0.2083,0.2032,0.2032,0.2032,0,0,0.1883,0.1914,0.1924,0.1964,0.198,0.1991,0.2013,0.203,0.2035,0.2048,0.2053,0.2061,0.2055,0.2048,0.2045,0.204,0.2051,0.2023,0.2023,0.2029,0.2078,0.2083,0.2088,0.2031,0.2031,0.2031,0,0,0.1865,0.1903,0.1914,0.1935,0.1968,0.1983,0.1991,0.2017,0.2028,0.2034,0.2045,0.2052,0.2043,0.2041,0.2037,0.2024,0.2053,0.2019,0.2011,0.2057,0.2063,0.2068,0.2106,0.2115,0.2007,0.2007,0.2007,0,0.1848,0.188,0.1915,0.1931,0.1953,0.198,0.1993,0.1997,0.2018,0.2036,0.2036,0.2055,0.204,0.2043,0.203,0.2022,0.2058,0.2019,0.2059,0.2064,0.2069,0.2108,0.2117,0.2007,0.2007,0.2007,0.2007,0,0.1841,0.1869,0.1875,0.1911,0.1932,0.1949,0.1971,0.1987,0.2006,0.2023,0.2048,0.2039,0.2062,0.204,0.2024,0.2044,0.2061,0.2064,0.2068,0.2075,0.2114,0.2124,0.2007,0.2007,0.2007,0.2007,0,0,0.1811,0.186,0.1865,0.1897,0.1933,0.1957,0.1962,0.1996,0.2032,0.2032,0.2083,0.2046,0.2073,0.2068,0.2058,0.2065,0.211,0.2071,0.2073,0.212,0.2221,0.2218,0.2229,0.2133,0.2134,0.2136,0.2234,0,0.18,0.1833,0.1857,0.1892,0.1925,0.1959,0.1974,0.2007,0.2039,0.2091,0.2088,0.2127,0.2073,0.2101,0.2099,0.2123,0.2137,0.2083,0.2198,0.2201,0.2207,0.224,0.2049,0.212,0.2243,0.2245,0.2246,0,0.1807,0.1834,0.1865,0.1934,0.195,0.1965,0.2044,0.2059,0.2118,0.2152,0.2188,0.2212,0.2221,0.2187,0.2222,0.22,0.2208,0.2211,0.2216,0.2222,0.2217,0.2132,0.2134,0.2263,0.2262,0.2261,0.2259,0,0.182,0.1858,0.189,0.1909,0.1967,0.1993,0.2023,0.2084,0.2132,0.2206,0.2269,0.2293,0.2331,0.234,0.2326,0.2298,0.2381,0.2353,0.2356,0.2356,0.222,0.2205,0.2392,0.2392,0.2392,0.2392,0.2391,0,0.1838,0.1874,0.19,0.1927,0.1978,0.2016,0.2083,0.2124,0.2209,0.2265,0.2307,0.2361,0.2374,0.2416,0.2388,0.2409,0.244,0.2372,0.2389,0.2213,0.2197,0.2337,0.233,0.2395,0.2394,0.2394,0.2393,0,0.1867,0.1883,0.1928,0.1972,0.1992,0.2031,0.2115,0.2161,0.2247,0.2329,0.2363,0.2448,0.2491,0.2504,0.2534,0.2502,0.2514,0.2512,0.2302,0.2292,0.2443,0.2434,0.2542,0.2543,0.2543,0.2544,0.2545,0,0.1886,0.1909,0.195,0.1966,0.1985,0.2043,0.2077,0.2168,0.2218,0.2356,0.239,0.2493,0.2527,0.2599,0.256,0.2563,0.2558,0.2394,0.2295,0.2457,0.2462,0.2452,0.2442,0.2108,0.2105,0.2102,0.21,0,0.1907,0.1914,0.1933,0.1962,0.1992,0.2032,0.2087,0.2141,0.2231,0.2314,0.2394,0.245,0.2528,0.2449,0.2484,0.2444,0.2379,0.2347,0.2585,0.2107,0.2058,0.206,0.2063,0.2078,0.208,0.2082,0.2083,0.2084,0.19,0.1904,0.1908,0.1934,0.1964,0.1979,0.199,0.2046,0.2116,0.2175,0.2289,0.2293,0.2326,0.2282,0.222,0.2172,0.2323,0.2198,0.2201,0.2208,0.2148,0.2104,0.212,0.2123,0.2125,0.2127,0.2128,0,0.1845,0.1852,0.1875,0.1878,0.1869,0.1917,0.1956,0.1926,0.194,0.202,0.2066,0.1927,0.192,0.194,0.1847,0.1879,0.1809,0.1791,0.1664,0.169,0.1713,0.1621,0.1457,0.1455,0.1453,0.145,0,0,0.1811,0.1789,0.1792,0.1754,0.1768,0.1717,0.1715,0.1692,0.1713,0.1684,0.1678,0.1816,0.1902,0.164,0.1631,0.1522,0.1582,0.1468,0.2014,0.1891,0.191,0.1971,0.1866,0,0,0,0,0]},{"header":{"parameterUnit":"m.s-1","parameterCategory":2,"la1":30.2991,"la2":30.254,"lo1":-89.0895,"lo2":-89.0444,"dy":0.0017,"dx":0.0017,"nx":28,"ny":28,"refTime":"2025-03-19T09:00:00:Z","depth":"2","parameterNumber":3,"parameterNumberName":"V-component_of_CURRENTS"},"data":[0,0,0,0,0,0,0,0,0,0,0,0,0,0,0,0,0,0,0,0,0,0,0,0,0,0,0,0,0,0,0,0,0,0,0,0,0,0,0,0,0,0,0,0,0,0,0,0,0,0,0,0,0,0,0,0,0,0,0.0041,0.0041,0,-0.0021,-0.0022,-0.0023,-0.0084,-0.0084,-0.0085,-0.0085,-0.0182,-0.0184,-0.0187,0,0,0,0,0,0,0,0,0,0,0,0,0,0.0049,0.0049,0.0041,0.0041,0.004,-0.0021,-0.0022,-0.0024,-0.0084,-0.0084,-0.0085,-0.0086,-0.0182,-0.0184,-0.0187,0,0,0,0,0,0,0,0,0,0,0,0,0,0.002,0.0049,0.0041,0.0005,0.0001,-0.0021,-0.0022,-0.0024,-0.0084,-0.0084,-0.0085,-0.0086,-0.0181,-0.0184,-0.0187,-0.019,0,0,-0.0197,-0.0198,0,0,0,0,0,0,0,0,0.0021,0.0019,0.0011,0.0007,0.0003,-0.0043,-0.0055,-0.008,-0.0083,-0.0054,-0.0085,-0.0086,-0.0137,-0.0144,-0.0157,-0.0195,-0.0199,-0.0197,-0.0199,-0.02,-0.0201,0,0,0,0,0,0,0,0.0024,0.0021,0.0014,0.001,0.0006,-0.0029,-0.0034,-0.0061,-0.0093,-0.0057,-0.0061,-0.0063,-0.014,-0.0154,-0.016,-0.02,-0.0197,-0.02,-0.0202,-0.0203,-0.0251,-0.025,0,0,0,0,0,0,0.0041,0.0024,0.0016,0.0012,0.0013,-0.0028,-0.0034,-0.003,-0.0092,-0.0101,-0.0062,-0.0066,-0.0148,-0.0156,-0.0163,-0.0172,-0.02,-0.0203,-0.0205,-0.0252,-0.0251,-0.025,0,0,0,0,0,0,0.0041,0.0041,0.0018,0.0018,0.0013,-0.0027,-0.0022,-0.0031,-0.0047,-0.0095,-0.0106,-0.0071,-0.0149,-0.0159,-0.0186,-0.0176,-0.0204,-0.0207,-0.0252,-0.0251,-0.0251,-0.0188,0,0,0,0,0,0,0.0042,0.0042,0.0045,0.002,0.0014,0.0012,-0.0022,-0.0031,-0.0046,-0.0051,-0.0106,-0.0116,-0.015,-0.0181,-0.0189,-0.0181,-0.021,-0.0253,-0.0252,-0.0251,-0.0191,-0.0185,-0.0181,0,0,0,0,0,0.0043,0.0054,0.0045,0.0044,0.0021,0.0012,0.0006,-0.0027,-0.0045,-0.0047,-0.0085,-0.0114,-0.018,-0.0183,-0.0193,-0.0185,-0.0254,-0.0252,-0.0251,-0.0194,-0.0187,-0.0181,0,0,0,0,0,0,0.0061,0.0049,0.0038,0.0046,0.0034,0.0003,-0.0003,-0.0022,-0.0053,-0.0062,-0.011,-0.0122,-0.0142,-0.0169,-0.0172,-0.0195,-0.022,-0.022,-0.0173,-0.0167,-0.0162,-0.0154,-0.0212,0,0,0,0,0,0.0069,0.0073,0.0057,0.0064,0.0058,0.0029,0.0019,0.0001,-0.0026,-0.0042,-0.0076,-0.0113,-0.0143,-0.0159,-0.019,-0.0201,-0.0233,-0.0201,-0.0196,-0.0191,-0.0191,-0.0229,-0.0228,-0.0246,-0.0246,-0.0246,0,0,0.0078,0.0073,0.0074,0.0068,0.0052,0.0054,0.002,0.0012,0.0012,-0.0046,-0.0061,-0.0097,-0.0142,-0.0158,-0.0169,-0.018,-0.0201,-0.019,-0.0185,-0.0188,-0.0228,-0.0226,-0.0225,-0.0245,-0.0245,-0.0245,0,0,0.0105,0.0095,0.0107,0.0101,0.0089,0.0071,0.0074,0.0049,0.0033,0.002,-0.0024,-0.0053,-0.0092,-0.0124,-0.0146,-0.0128,-0.0173,-0.0134,-0.0102,-0.0138,-0.0137,-0.0136,-0.0166,-0.0169,-0.0129,-0.0129,-0.0129,0,0.0115,0.0131,0.011,0.0122,0.012,0.0085,0.0099,0.0081,0.0052,0.0041,0.0025,-0.0039,-0.0076,-0.0104,-0.0099,-0.0116,-0.0143,-0.0122,-0.0131,-0.0131,-0.0132,-0.0163,-0.0167,-0.0126,-0.0127,-0.0127,-0.0127,0,0.0153,0.0163,0.017,0.0174,0.0169,0.0175,0.0153,0.0143,0.0121,0.01,0.0071,0.0021,-0.0018,-0.003,-0.0061,-0.0081,-0.0101,-0.0121,-0.0147,-0.0127,-0.016,-0.0165,-0.0122,-0.0123,-0.0124,-0.0125,0,0,0.0179,0.0195,0.0196,0.0209,0.0196,0.0201,0.0196,0.0184,0.0183,0.0148,0.0141,0.0088,0.0055,0.0028,-0.0014,-0.0045,-0.007,-0.0079,-0.0083,-0.0107,-0.0148,-0.016,-0.0168,-0.0094,-0.0095,-0.0096,-0.0167,0,0.0212,0.0255,0.0247,0.0278,0.0293,0.0263,0.0265,0.0247,0.0223,0.0208,0.015,0.0127,0.0079,0.0063,0.0023,-0.0048,-0.0082,-0.0049,-0.0166,-0.0169,-0.0182,-0.0173,-0.0147,-0.0208,-0.0172,-0.0173,-0.0174,0,0.0243,0.027,0.0312,0.0332,0.0335,0.0344,0.0337,0.0335,0.0297,0.0278,0.0236,0.0192,0.0138,0.0099,-0.0014,0.0009,-0.0064,-0.0119,-0.0124,-0.0163,-0.0191,-0.0225,-0.0219,-0.0183,-0.0182,-0.0181,-0.0181,0,0.0269,0.0308,0.0346,0.0354,0.0372,0.0378,0.0378,0.0353,0.0366,0.0318,0.0324,0.024,0.0212,0.0107,-0.0007,-0.0013,-0.0129,-0.0153,-0.0235,-0.0237,-0.0251,-0.0253,-0.0235,-0.0235,-0.0235,-0.0235,-0.0234,0,0.03,0.0328,0.0364,0.0386,0.0431,0.0417,0.045,0.0431,0.0424,0.0451,0.0364,0.0367,0.0213,0.0133,0.0012,-0.0122,-0.0118,-0.023,-0.0257,-0.0227,-0.0226,-0.0236,-0.0235,-0.0237,-0.0237,-0.0236,-0.0236,0,0.0318,0.0339,0.0391,0.043,0.0445,0.0473,0.0515,0.0542,0.0517,0.0549,0.0542,0.0465,0.0353,0.0198,0.0029,-0.0083,-0.022,-0.0271,-0.0222,-0.0242,-0.031,-0.0305,-0.0371,-0.0372,-0.0373,-0.0374,-0.0375,0,0.0332,0.0362,0.0435,0.0475,0.0496,0.0541,0.0579,0.0583,0.0626,0.0619,0.0649,0.055,0.05,0.0243,0.0019,-0.0199,-0.0227,-0.0317,-0.0329,-0.0305,-0.0325,-0.0318,-0.0312,-0.0322,-0.0322,-0.0322,-0.0322,0,0.0367,0.0393,0.0443,0.0533,0.0587,0.0659,0.0717,0.0771,0.0783,0.0809,0.0824,0.078,0.0532,0.0314,0.0008,-0.0139,-0.0283,-0.0326,-0.032,-0.0287,-0.0263,-0.0281,-0.0276,-0.0323,-0.0323,-0.0323,-0.0323,-0.0323,0.0396,0.0442,0.0516,0.0598,0.067,0.0768,0.0841,0.0907,0.0983,0.1026,0.0966,0.0896,0.064,0.0252,-0.0011,-0.0294,-0.0285,-0.0376,-0.0374,-0.0372,-0.0349,-0.0328,-0.0396,-0.0396,-0.0396,-0.0397,-0.0397,0,0.045,0.0499,0.0579,0.0686,0.0781,0.0807,0.0933,0.1006,0.1107,0.1114,0.1113,0.0874,0.0609,0.0308,-0.0103,-0.0343,-0.0362,-0.0423,-0.0387,-0.0384,-0.0382,-0.0358,-0.0408,-0.0409,-0.041,-0.041,0,0,0.0476,0.0566,0.061,0.0768,0.0843,0.0981,0.1063,0.1151,0.1192,0.1215,0.1163,0.1055,0.0692,0.0401,0.0066,-0.0172,-0.0224,-0.0222,-0.0187,-0.0101,-0.0096,-0.0328,-0.0286,0,0,0,0,0]}],[{"header":{"parameterUnit":"m.s-1","parameterCategory":2,"la1":30.2991,"la2":30.254,"lo1":-89.0895,"lo2":-89.0444,"dy":0.0017,"dx":0.0017,"nx":28,"ny":28,"refTime":"2025-03-19T09:00:00:Z","depth":"4","parameterNumber":2,"parameterNumberName":"U-component_of_CURRENTS"},"data":[0,0,0,0,0,0,0,0,0,0,0,0,0,0,0,0,0,0,0,0,0,0,0,0,0,0,0,0,0,0,0,0,0,0,0,0,0,0,0,0,0,0,0,0,0,0,0,0,0,0,0,0,0,0,0,0,0,0,0.0899,0.0899,0,0.0965,0.0966,0.0967,0.0998,0.0998,0.0998,0.0998,0.1075,0.1078,0.108,0,0,0,0,0,0,0,0,0,0,0,0,0,0.0895,0.0895,0.0899,0.0899,0.09,0.0965,0.0966,0.0968,0.0998,0.0998,0.0998,0.0998,0.1075,0.1077,0.108,0,0,0,0,0,0,0,0,0,0,0,0,0,0.0924,0.0894,0.0899,0.0922,0.0925,0.0965,0.0966,0.0968,0.0998,0.0998,0.0998,0.0997,0.1074,0.1077,0.108,0.1108,0,0,0.1091,0.1092,0,0,0,0,0,0,0,0,0.0923,0.0925,0.0918,0.092,0.0923,0.0972,0.0994,0.1015,0.0998,0.0972,0.0998,0.0997,0.1041,0.1047,0.1063,0.1112,0.1115,0.1091,0.1093,0.1095,0.1096,0,0,0,0,0,0,0,0.092,0.0922,0.0927,0.0918,0.0922,0.0962,0.0965,0.0998,0.1009,0.0975,0.0976,0.0981,0.1043,0.1059,0.1065,0.1116,0.1091,0.1094,0.1096,0.1098,0.1242,0.1243,0,0,0,0,0,0,0.0903,0.092,0.0925,0.0929,0.092,0.0962,0.0966,0.0958,0.1009,0.1015,0.0981,0.0982,0.1054,0.1061,0.1068,0.115,0.1095,0.1098,0.11,0.124,0.1242,0.1244,0,0,0,0,0,0,0.0903,0.0903,0.0922,0.0925,0.093,0.0961,0.0953,0.0959,0.1006,0.1013,0.1021,0.1024,0.1054,0.1063,0.1114,0.1151,0.1099,0.1103,0.1238,0.124,0.1243,0.1285,0,0,0,0,0,0,0.0902,0.0902,0.0916,0.0924,0.0929,0.0951,0.0954,0.0961,0.1006,0.1009,0.1052,0.1057,0.1054,0.1109,0.1118,0.1155,0.1105,0.1235,0.1239,0.1242,0.1281,0.1289,0.1295,0,0,0,0,0,0.0902,0.0908,0.0916,0.0918,0.0939,0.0951,0.0959,0.0982,0.1009,0.1026,0.106,0.1058,0.1136,0.1114,0.1123,0.1162,0.1234,0.1238,0.1242,0.1278,0.1287,0.1295,0,0,0,0,0,0,0.0915,0.0912,0.0921,0.0927,0.0943,0.0956,0.0985,0.1006,0.1051,0.1067,0.1082,0.1089,0.1147,0.1154,0.1128,0.1214,0.1185,0.1191,0.121,0.1219,0.1225,0.1219,0.1108,0,0,0,0,0,0.0923,0.093,0.0932,0.0944,0.0954,0.0983,0.1004,0.1016,0.1044,0.1066,0.1099,0.1136,0.1169,0.1192,0.1218,0.127,0.1277,0.1302,0.1309,0.1315,0.1317,0.1352,0.1362,0.1257,0.1257,0.1257,0,0,0.0935,0.0935,0.0942,0.0949,0.0972,0.0994,0.0996,0.1029,0.1061,0.1068,0.1142,0.1166,0.1189,0.1238,0.1266,0.125,0.1352,0.132,0.1324,0.1323,0.1357,0.1367,0.1376,0.126,0.1259,0.1259,0,0,0.0953,0.0961,0.0974,0.0988,0.1015,0.1027,0.1044,0.1076,0.1106,0.1167,0.118,0.1223,0.1289,0.1299,0.1315,0.1381,0.1387,0.1402,0.1434,0.1468,0.1477,0.1484,0.1519,0.1529,0.1405,0.1405,0.1405,0,0.0979,0.098,0.0984,0.1002,0.1022,0.1047,0.1072,0.1105,0.1155,0.1184,0.1196,0.1297,0.1314,0.1366,0.1384,0.1396,0.1419,0.1397,0.1476,0.1483,0.149,0.1524,0.1535,0.1408,0.1408,0.1407,0.1407,0,0.0997,0.1014,0.1027,0.1054,0.1075,0.11,0.1129,0.1176,0.1225,0.1253,0.133,0.1358,0.1412,0.1429,0.1429,0.1492,0.1495,0.1479,0.145,0.1503,0.1536,0.1546,0.1411,0.1411,0.141,0.1409,0,0,0.1014,0.1037,0.1046,0.1059,0.1104,0.1113,0.1179,0.1226,0.1274,0.1336,0.1401,0.1457,0.1479,0.1498,0.151,0.1539,0.1608,0.1536,0.1537,0.1563,0.1698,0.1594,0.1596,0.1611,0.1613,0.1615,0.1705,0,0.1037,0.1061,0.1076,0.1116,0.1127,0.117,0.1221,0.127,0.1327,0.1396,0.144,0.1508,0.1504,0.1542,0.1571,0.1604,0.1636,0.1586,0.165,0.1652,0.1546,0.1604,0.162,0.1713,0.1715,0.1717,0.1718,0,0.1039,0.1057,0.1092,0.1124,0.1138,0.118,0.1255,0.1305,0.1396,0.1446,0.1519,0.1558,0.1631,0.1612,0.1699,0.1674,0.1692,0.1706,0.171,0.1602,0.1566,0.1647,0.1737,0.1735,0.1734,0.1733,0.1731,0,0.1012,0.1055,0.1081,0.1098,0.1154,0.1198,0.1247,0.133,0.1388,0.1494,0.1559,0.1628,0.1702,0.1731,0.1776,0.1751,0.186,0.1823,0.1745,0.1739,0.1785,0.1776,0.1873,0.1873,0.1872,0.1872,0.1872,0,0.1,0.1022,0.1077,0.1097,0.1146,0.119,0.127,0.1331,0.1437,0.1509,0.1592,0.1662,0.174,0.1809,0.1811,0.1821,0.1895,0.1762,0.1756,0.1803,0.1795,0.1793,0.1782,0.1875,0.1875,0.1874,0.1873,0,0.096,0.0997,0.1032,0.1106,0.1135,0.1178,0.1296,0.1346,0.1459,0.1565,0.1612,0.1734,0.1813,0.1868,0.193,0.1876,0.1881,0.1861,0.1932,0.1927,0.1728,0.1719,0.1777,0.1774,0.1771,0.1769,0.1768,0,0.0934,0.0947,0.1036,0.107,0.1118,0.1193,0.1245,0.1355,0.1416,0.1591,0.1632,0.1764,0.1825,0.1842,0.189,0.1896,0.1864,0.1861,0.1763,0.173,0.172,0.1714,0.1709,0.1764,0.1763,0.1762,0.1762,0,0.0894,0.0941,0.0982,0.1049,0.1111,0.1172,0.126,0.1298,0.1427,0.1541,0.1618,0.1661,0.1749,0.1777,0.1808,0.1799,0.1855,0.1835,0.1838,0.1745,0.1715,0.1706,0.1703,0.1753,0.1755,0.1755,0.1756,0,0.0874,0.0896,0.0956,0.1012,0.1086,0.113,0.1182,0.1248,0.132,0.1493,0.1514,0.1635,0.1738,0.173,0.1752,0.1744,0.1699,0.1627,0.1641,0.1651,0.1563,0.1503,0.1481,0,0,0,0,0,0.0838,0.0858,0.0905,0.0965,0.1036,0.1078,0.1176,0.1228,0.1349,0.1365,0.1435,0.1497,0.1543,0.1601,0.1564,0.1688,0.1704,0.1637,0.1628,0.1706,0.1716,0.1621,0,0,0,0,0,0,0.0816,0.0856,0.0881,0.0913,0.0942,0.1009,0.1069,0.1149,0.116,0.1285,0.1313,0.1407,0.1466,0.1547,0.1536,0.1552,0.1515,0.1706,0.1702,0.1701,0.1709,0.1717,0.1623,0,0,0,0,0]},{"header":{"parameterUnit":"m.s-1","parameterCategory":2,"la1":30.2991,"la2":30.254,"lo1":-89.0895,"lo2":-89.0444,"dy":0.0017,"dx":0.0017,"nx":28,"ny":28,"refTime":"2025-03-19T09:00:00:Z","depth":"4","parameterNumber":3,"parameterNumberName":"V-component_of_CURRENTS"},"data":[0,0,0,0,0,0,0,0,0,0,0,0,0,0,0,0,0,0,0,0,0,0,0,0,0,0,0,0,0,0,0,0,0,0,0,0,0,0,0,0,0,0,0,0,0,0,0,0,0,0,0,0,0,0,0,0,0,0,0.0352,0.0352,0,0.0331,0.0331,0.0331,0.0343,0.0343,0.0344,0.0345,0.0262,0.0259,0.0256,0,0,0,0,0,0,0,0,0,0,0,0,0,0.0312,0.0313,0.0352,0.0352,0.0352,0.0332,0.0331,0.0331,0.0342,0.0343,0.0344,0.0345,0.0263,0.0259,0.0256,0,0,0,0,0,0,0,0,0,0,0,0,0,0.0313,0.0313,0.0352,0.0356,0.0356,0.0332,0.0331,0.0331,0.0342,0.0343,0.0344,0.0345,0.0264,0.026,0.0255,0.0208,0,0,0.0242,0.024,0,0,0,0,0,0,0,0,0.0313,0.0315,0.0356,0.0356,0.0356,0.0342,0.0287,0.0287,0.0342,0.0346,0.0345,0.0346,0.0283,0.0277,0.027,0.0204,0.0201,0.0242,0.0239,0.0238,0.0236,0,0,0,0,0,0,0,0.0313,0.0315,0.0343,0.0355,0.0356,0.0328,0.033,0.0287,0.0307,0.0346,0.0347,0.0346,0.0282,0.0274,0.0268,0.02,0.0242,0.0238,0.0236,0.0234,0.0085,0.0084,0,0,0,0,0,0,0.0322,0.0315,0.0343,0.0342,0.0338,0.0329,0.0331,0.0344,0.0309,0.0305,0.0346,0.0347,0.0281,0.0273,0.0265,0.0219,0.0238,0.0234,0.0231,0.0086,0.0085,0.0083,0,0,0,0,0,0,0.0321,0.0325,0.0344,0.0328,0.0329,0.0329,0.0343,0.0343,0.0344,0.0309,0.0305,0.0348,0.0281,0.0271,0.023,0.0216,0.0232,0.0228,0.0088,0.0086,0.0084,0.0119,0,0,0,0,0,0,0.0321,0.0325,0.0339,0.0329,0.033,0.034,0.0343,0.0342,0.0342,0.0344,0.0309,0.0302,0.0281,0.0237,0.0226,0.021,0.0224,0.009,0.0087,0.0084,0.012,0.0118,0.0117,0,0,0,0,0,0.0319,0.0334,0.034,0.0343,0.0349,0.034,0.0338,0.0339,0.0342,0.0343,0.0315,0.0304,0.0212,0.0232,0.022,0.0202,0.0091,0.0088,0.0085,0.012,0.0119,0.0117,0,0,0,0,0,0,0.0324,0.0336,0.0342,0.0361,0.0356,0.0343,0.0344,0.0341,0.032,0.0321,0.0289,0.0279,0.0236,0.0208,0.0231,0.0148,0.0148,0.0142,0.0179,0.0177,0.0176,0.0199,0.0221,0,0,0,0,0,0.0331,0.0348,0.0347,0.0362,0.0361,0.0352,0.0349,0.0348,0.0329,0.0323,0.0295,0.0255,0.021,0.0188,0.0147,0.0102,0.0087,0.0079,0.0078,0.0077,0.0085,0.0055,0.0053,0.0073,0.0073,0.0073,0,0,0.0335,0.0345,0.0354,0.0364,0.036,0.0354,0.0353,0.0351,0.0342,0.0312,0.0288,0.0251,0.0196,0.0151,0.0128,0.0129,0.006,0.0073,0.0074,0.0082,0.0052,0.005,0.0049,0.0071,0.0071,0.0071,0,0,0.0343,0.0362,0.0374,0.0371,0.0371,0.0361,0.0363,0.035,0.0343,0.031,0.0283,0.0244,0.0177,0.0142,0.0111,0.0074,0.0056,0.0052,0.0065,0.0036,0.0035,0.0034,0.0008,0.0004,0.0051,0.0051,0.0051,0,0.0347,0.037,0.0372,0.0378,0.0381,0.0365,0.037,0.0349,0.0323,0.0317,0.0307,0.0217,0.0172,0.0119,0.0103,0.0074,0.0057,0.0082,0.0039,0.0037,0.0036,0.0009,0.0004,0.0052,0.0052,0.0052,0.0052,0,0.0358,0.0378,0.0382,0.0388,0.0386,0.0389,0.0367,0.0356,0.0341,0.0323,0.0279,0.0219,0.0175,0.014,0.0107,0.0065,0.0056,0.0046,0.0053,0.0037,0.0008,0.0003,0.0054,0.0054,0.0053,0.0053,0,0,0.0371,0.0389,0.0392,0.0411,0.0399,0.0404,0.038,0.0368,0.037,0.0321,0.0315,0.0221,0.0206,0.017,0.0123,0.0085,0.0048,0.0062,0.006,0.0055,-0.0013,-0.0015,-0.002,0.0036,0.0036,0.0035,-0.0029,0,0.0384,0.0411,0.0409,0.043,0.0445,0.0429,0.0417,0.0399,0.0377,0.0362,0.0296,0.0265,0.0211,0.0195,0.0147,0.0074,0.0037,0.0067,-0.0014,-0.0016,0.0001,-0.0026,0.0033,-0.0033,-0.0034,-0.0035,-0.0035,0,0.0402,0.0422,0.0451,0.0481,0.0486,0.0487,0.0494,0.0479,0.0441,0.0425,0.0382,0.0339,0.0265,0.023,0.0108,0.0132,0.0064,0.0007,0.0003,-0.001,-0.0027,-0.0016,-0.0045,-0.0044,-0.0043,-0.0043,-0.0042,0,0.0433,0.0459,0.0493,0.0499,0.0513,0.0526,0.0526,0.0504,0.0508,0.0469,0.047,0.0384,0.0344,0.0248,0.012,0.0118,-0.0005,-0.002,-0.0085,-0.0086,-0.0077,-0.0076,-0.0095,-0.0095,-0.0095,-0.0095,-0.0094,0,0.0459,0.0491,0.0516,0.0535,0.0579,0.0572,0.0607,0.0591,0.0579,0.0584,0.0511,0.049,0.0347,0.0258,0.0144,0.0013,0.0013,-0.0085,-0.0104,-0.0064,-0.0061,-0.0081,-0.0079,-0.0097,-0.0097,-0.0096,-0.0096,0,0.049,0.0507,0.0551,0.058,0.0599,0.0627,0.0664,0.0684,0.0664,0.0667,0.0658,0.0566,0.0444,0.0304,0.0141,0.0049,-0.0077,-0.0122,-0.0066,-0.0081,-0.0144,-0.0139,-0.0197,-0.0197,-0.0198,-0.0198,-0.0198,0,0.0507,0.0534,0.0586,0.062,0.0638,0.0685,0.0718,0.0723,0.0739,0.0706,0.0705,0.0604,0.0524,0.0297,0.0144,-0.0058,-0.0092,-0.0153,-0.0158,-0.0142,-0.0155,-0.015,-0.0144,-0.0199,-0.0199,-0.02,-0.02,0,0.0535,0.0554,0.0586,0.0653,0.0703,0.076,0.0801,0.0821,0.0815,0.0808,0.0739,0.0617,0.0481,0.0298,0.0143,-0.0006,-0.0112,-0.0159,-0.0159,-0.0164,-0.0146,-0.0157,-0.0152,-0.0202,-0.0201,-0.0201,-0.0201,0,0.0551,0.0576,0.0619,0.0678,0.0745,0.0801,0.0827,0.0838,0.0852,0.0809,0.0783,0.0631,0.0541,0.0324,0.0179,0.0036,-0.0004,-0.0054,-0.0061,-0.0061,-0.0007,0.0038,0.0021,0,0,0,0,0,0.0558,0.0588,0.0641,0.0704,0.0771,0.0813,0.0867,0.0883,0.0884,0.0841,0.0811,0.0681,0.0455,0.0356,0.0214,0.0167,-0.0026,-0.0005,-0.0086,-0.0211,-0.0209,-0.017,0,0,0,0,0,0,0.0565,0.0614,0.0636,0.0715,0.0763,0.0839,0.0875,0.0881,0.0853,0.0828,0.0711,0.0646,0.0431,0.0538,0.0211,0.0168,0.0096,-0.0109,-0.0113,-0.0213,-0.0211,-0.0209,-0.0168,0,0,0,0,0]}]]